Elkins, WV

2:07 AM EST on January 20, 2017 (GMT -0500)
Elkins-Randolph County

Weather History for KEKN - November, 2011

Change the Weather History Date:

Monday, November 14, 2011

  Actual Average Record
Temperature  
Mean Temperature 65 °F 42 °F  
Max Temperature 73 °F 54 °F 79 °F (1993)
Min Temperature 57 °F 31 °F 5 °F (1986)
Degree Days  
Heating Degree Days 0 23  
Month to date heating degree days 277 288  
Since 1 July heating degree days 808 879  
Cooling Degree Days 0 0  
Month to date cooling degree days 0 0  
Year to date cooling degree days 699 475  
Growing Degree Days 16 (Base 50)    
Moisture  
Dew Point 47 °F    
Average Humidity 51    
Maximum Humidity 60    
Minimum Humidity 41    
Precipitation  
Precipitation 0.00 in 0.11 in 1.25 in (1972)
Month to date precipitation 0.02 1.51  
Year to date precipitation 44.38 40.80  
Snow  
Snow 0.00 in - - ()
Month to date snowfall T  
Since 1 September snowfall 1.1  
Snow Depth 0.00 in    
Sea Level Pressure  
Sea Level Pressure 29.89 in    
Wind  
Wind Speed 10 mph (SSW)    
Max Wind Speed 22 mph    
Max Gust Speed 31 mph    
Visibility 10 miles    
Events      
T = Trace of Precipitation, MM = Missing Value Source: NWS Daily Summary

Daily Weather History Graph

Daily Weather History Graph

Search for Another Location

Airport or City:

Trip Planner

Search our weather history database for the weather conditions in past years. The results will help you decide how hot, cold, wet, or windy it might be!

Date:

Astronomy

Nov. 14, 2011 Rise Set
Actual Time 7:00 AM EST 5:06 PM EST
Civil Twilight 6:32 AM EST 5:35 PM EST
Nautical Twilight 6:00 AM EST 6:07 PM EST
Astronomical Twilight 5:28 AM EST 6:38 PM EST
Moon 8:12 PM EST (11/14) 10:17 AM EST (11/14)
Length of Visible Light 11h 02m
Length of Day
10h 05m
Waning Gibbous, 87% of the Moon is Illuminated
Nov 14
Waning Gibbous
Nov 18
Last Quarter
Nov 25
New
Dec 2
First Quarter
Dec 10
Full

Hourly Weather History & Observations

Time (EST) Temp. Dew Point Humidity Pressure Visibility Wind Dir Wind Speed Gust Speed Precip Events Conditions
12:51 AM 59.0 °F 39.9 °F 49% 29.96 in 10.0 mi SSW 8.1 mph - N/A   Mostly Cloudy
1:51 AM 59.0 °F 41.0 °F 51% 29.95 in 10.0 mi South 8.1 mph - N/A   Partly Cloudy
2:51 AM 60.1 °F 43.0 °F 53% 29.95 in 10.0 mi South 11.5 mph 17.3 mph N/A   Mostly Cloudy
3:51 AM 60.1 °F 43.0 °F 53% 29.94 in 10.0 mi South 8.1 mph - N/A   Overcast
4:51 AM 60.1 °F 45.0 °F 57% 29.94 in 10.0 mi South 5.8 mph - N/A   Overcast
5:51 AM 61.0 °F 46.0 °F 58% 29.95 in 10.0 mi Variable 6.9 mph - N/A   Overcast
6:51 AM 62.1 °F 46.9 °F 58% 29.94 in 10.0 mi South 8.1 mph 17.3 mph N/A   Overcast
7:51 AM 62.1 °F 48.9 °F 62% 29.96 in 10.0 mi South 9.2 mph - N/A   Mostly Cloudy
8:51 AM 64.0 °F 48.9 °F 58% 29.95 in 10.0 mi SSW 9.2 mph 17.3 mph N/A   Overcast
9:51 AM 64.9 °F 50.0 °F 58% 29.96 in 10.0 mi South 6.9 mph - N/A   Overcast
10:51 AM 68.0 °F 51.1 °F 55% 29.93 in 10.0 mi SW 10.4 mph 19.6 mph N/A   Mostly Cloudy
11:51 AM 71.1 °F 51.1 °F 49% 29.90 in 10.0 mi SW 12.7 mph 24.2 mph N/A   Mostly Cloudy
12:51 PM 71.1 °F 48.9 °F 45% 29.87 in 10.0 mi SW 10.4 mph - N/A   Mostly Cloudy
1:51 PM 73.0 °F 48.9 °F 42% 29.84 in 10.0 mi SSW 13.8 mph 23.0 mph N/A   Scattered Clouds
2:51 PM 72.0 °F 48.0 °F 43% 29.84 in 10.0 mi SW 12.7 mph - N/A   Clear
3:51 PM 72.0 °F 48.0 °F 43% 29.83 in 10.0 mi WSW 11.5 mph - N/A   Scattered Clouds
4:51 PM 70.0 °F 46.9 °F 44% 29.82 in 10.0 mi SSW 10.4 mph 27.6 mph N/A   Scattered Clouds
5:51 PM 69.1 °F 46.9 °F 45% 29.83 in 10.0 mi SW 10.4 mph 18.4 mph N/A   Clear
6:51 PM 68.0 °F 48.0 °F 49% 29.84 in 10.0 mi SW 11.5 mph 25.3 mph N/A   Scattered Clouds
7:51 PM 66.9 °F 48.0 °F 51% 29.83 in 10.0 mi SSW 12.7 mph 17.3 mph N/A   Overcast
8:51 PM 66.2 °F 48.2 °F 52% 29.86 in 10.0 mi SSW 9.2 mph - N/A   Mostly Cloudy
9:51 PM 66.9 °F 48.9 °F 52% 29.85 in 10.0 mi SSW 18.4 mph 23.0 mph N/A   Overcast
10:51 PM 66.0 °F 48.9 °F 54% 29.84 in 10.0 mi SSW 12.7 mph 20.7 mph N/A   Clear
11:51 PM 66.9 °F 50.0 °F 54% 29.84 in 10.0 mi SSW 12.7 mph 19.6 mph N/A   Overcast